Yatton Keynell, United Kingdom

8:04 AM BST on April 23, 2019 (GMT +0100)
Yatton Keynell

Weather History for 03740 - August, 2012

Change the Weather History Date:

Sunday, August 12, 2012

  Actual Average Record
Temperature  
Mean Temperature 64 °F -  
Max Temperature 72 °F 66 °F - ()
Min Temperature 55 °F 51 °F - ()
Degree Days  
Heating Degree Days 2    
Growing Degree Days 14 (Base 50)    
Moisture  
Dew Point 57 °F    
Average Humidity 81    
Maximum Humidity 94    
Minimum Humidity 56    
Precipitation  
Precipitation 0.16 in 0.08 in - ()
Sea Level Pressure  
Sea Level Pressure 29.88 in    
Wind  
Wind Speed 7 mph ()    
Max Wind Speed 12 mph    
Max Gust Speed -    
T = Trace of Precipitation, MM = Missing Value Source: Averaged Metar Reports

Daily Weather History Graph

Daily Weather History Graph

Search for Another Location

Airport or City:

Astronomy

Aug. 12, 2012 Rise Set
Actual Time 5:49 AM BST 8:35 PM BST
Civil Twilight 5:11 AM BST 9:13 PM BST
Nautical Twilight 4:21 AM BST 10:02 PM BST
Astronomical Twilight 3:21 AM BST 11:01 PM BST
Moon 12:36 AM BST (8/12) 5:03 PM BST (8/12)
Length of Visible Light 16h 02m
Length of Day
14h 46m
Waning Crescent, 26% of the Moon is Illuminated
Aug 12
Waning Crescent
Aug 17
New
Aug 24
First Quarter
Aug 31
Full
Sep 8
Last Quarter

Hourly Weather History & Observations

Time (BST) Temp. Dew Point Humidity Pressure Visibility Wind Dir Wind Speed Gust Speed Precip Events Conditions
12:50 AM 59 °F 54 °F 79% 29.96 in - ENE 11.5 mph - -   Partly Cloudy
12:50 AM 59.0 °F 53.6 °F 82% 29.95 in - ENE 11.5 mph - N/A   Scattered Clouds
1:50 AM 59.0 °F 55.4 °F 88% 29.95 in - North 5.8 mph - N/A   Scattered Clouds
2:50 AM 55.4 °F 53.6 °F 94% 29.92 in - NNE 5.8 mph - N/A   Mostly Cloudy
3:50 AM 57 °F 55 °F 90% 29.91 in - NE 9.2 mph - -   Overcast
3:50 AM 57.2 °F 55.4 °F 94% 29.89 in - NE 9.2 mph - N/A   Overcast
4:50 AM 57.2 °F 55.4 °F 94% 29.89 in - ENE 10.4 mph - N/A   Overcast
5:50 AM 57.2 °F 55.4 °F 94% 29.86 in - East 8.1 mph - N/A   Overcast
6:50 AM 57 °F 55 °F 90% 29.88 in - NNE 5.8 mph - -  
6:50 AM 57.2 °F 55.4 °F 94% 29.86 in - NNE 5.8 mph - N/A   Mostly Cloudy
7:50 AM 59.0 °F 57.2 °F 94% 29.86 in - NE 4.6 mph - N/A   Mostly Cloudy
8:50 AM 60.8 °F 57.2 °F 88% 29.86 in - East 8.1 mph - N/A   Overcast
9:50 AM 62 °F 57 °F 77% 29.88 in - ESE 5.8 mph - -   Mostly Cloudy
9:50 AM 62.6 °F 57.2 °F 82% 29.89 in - ESE 5.8 mph - N/A   Mostly Cloudy
10:50 AM 60.8 °F 57.2 °F 88% 29.89 in - SE 6.9 mph - N/A   Mostly Cloudy
11:50 AM 64.4 °F 59.0 °F 83% 29.86 in - SSE 3.5 mph - N/A   Mostly Cloudy
12:50 PM 64 °F 59 °F 80% 29.88 in - ENE 2.3 mph - -   Overcast
12:50 PM 64.4 °F 59.0 °F 83% 29.86 in - ENE 2.3 mph - N/A   Overcast
1:50 PM 68.0 °F 60.8 °F 78% 29.89 in - WSW 4.6 mph - N/A   Scattered Clouds
2:50 PM 69.8 °F 57.2 °F 64% 29.86 in - SE 1.2 mph - N/A   Scattered Clouds
3:50 PM 71 °F 58 °F 56% 29.86 in - South 5.8 mph - -   Partly Cloudy
3:50 PM 71.6 °F 59.0 °F 64% 29.86 in - South 5.8 mph - N/A   Scattered Clouds
4:50 PM 69.8 °F 59.0 °F 68% 29.86 in - SSW 4.6 mph - N/A   Partly Cloudy
5:50 PM 69.8 °F 57.2 °F 64% 29.86 in - SSW 9.2 mph - N/A   Unknown
6:50 PM 68 °F 57 °F 60% 29.85 in - SSW 8.1 mph - -  
6:50 PM 68.0 °F 57.2 °F 68% 29.86 in - SSW 8.1 mph - N/A   Unknown
7:50 PM 64.4 °F 57.2 °F 77% 29.86 in - SSW 6.9 mph - N/A   Unknown
8:50 PM 62.6 °F 55.4 °F 77% 29.86 in - SSW 8.1 mph - N/A   Mostly Cloudy
9:50 PM 61 °F 56 °F 78% 29.87 in - South 8.1 mph - -   Mostly Cloudy
9:50 PM 60.8 °F 55.4 °F 82% 29.86 in - South 8.1 mph - N/A   Mostly Cloudy
10:50 PM 59.0 °F 55.4 °F 88% 29.86 in - South 5.8 mph - N/A   Scattered Clouds
11:50 PM 59.0 °F 55.4 °F 88% 29.86 in - South 3.5 mph - N/A   Mostly Cloudy